STARLINK-37849, 69499

Orbit data source: Space-Track

STARLINK-37849, 69499 is a payload satellite owned by SpaceX/Seattle (US) in SSO that was launched on Thu, 11 Jun 2026 UTC via an FALCON 9 launch vehicle from the Air Force Western Test Range (AFWTR). Payload-class satellites include a variety of spacecraft equipped with specific instruments for various scientific and technological missions. These include communications satellites like Starlink; space stations such as the ISS; scientific satellites like the Hubble; Earth observation satellites from companies like Planet Labs, Umbra, and HawkEye 360; GPS; miniature CubeSats for education and research; and military/defense satellites.

Loading next visibility...
Identifier
69499, 2026-131X
Orbit
SSO
Country
Flag of USUS
Related business
Manufacturer
SpaceX/Seattle
Mission
Operational spacecraft
Bus & Motor
STARLINK V2MO, Unknown motor
Mass
575 kg wet, ~530 kg dry
Launch date (UTC)
2026-06-11 (1 week ago)
Launch vehicle
FALCON 9
Launch site
Air Force Western Test Range (AFWTR)
Object type
Payload
Rocket body
Debris
Shape & HBR
Unknown
Radar Cross Section
RCS unknown

Expand to show TLE details & history
Last TLE update: 10 hours ago

TLE from 10 hours ago
0 STARLINK-37849
1 69499U 26131X   26171.41668980 -.01154637  39613-3 -33809-2 0  9998
2 69499  97.2832 191.8756 0001067  95.9658 251.0620 15.92787795  2618
Epoch: 2026-06-20T10:00Z
TLE epoch observation values (Epoch: 2026-06-20T10:00:01.998Z)
Latitude
-13.08404°
Longitude
134.92817°
Altitude
300.513 km
Speed
7.726 km/s
True Right ascension
12h 54m 16s
True Declination
-13° 00' 12"
Sunlit
Object was in full shadow at epoch
Visualization orbit readout
Latitude
Unknown
Longitude
Unknown
Altitude
Unknown
Speed
Unknown
Apparent Right ascension
Unknown
Apparent Declination
Unknown
Sunlit
N/A
Visualization observer readout
Local Sidereal Time
07:13:39
Azimuth
Unknown
Elevation
Unknown
Doppler factor
Unknown
Orbital elements
Apogee altitude
292.061 km
Perigee altitude
290.638 km
Semi-major axis
6,669.487 km
Eccentricity
0.00011
Inclination
97.2832°
RAAN
191.8756°
Arg. of periapsis
95.9658°
True anomaly
251.05044°
Mean anomaly
251.062°
Eccentric anomaly
251.05622°
Mean motion
3.98478 °/min
Orbital period
90.34 mins
BSTAR
-0.0033809
Loading maneuver chart data...
Computing Atmospheric mass density...
Loading historical data...
Loading historical data...
Loading historical data...
Loading historical data...
Loading historical data...
Loading historical data...
Loading historical data...

Documentation

Showing up to 5 results
|